Regional Weather Roundup
Issued by NWS Raleigh/Durham, NC

Home | Current Version | Previous Version | Text Only | Print | Product List | Glossary On
Versions: 1 2 3 4 5 6 7 8 9 10 11 12 13 14 15 16 17 18 19 20 21 22 23 24 25 26 27 28 29 30 31 32 33 34 35 36 37 38 39 40 41 42 43 44 45 46 47 48 49 50
000
ASUS42 KRAH 240010
RWRRAH
NORTH CAROLINA WEATHER ROUNDUP
NATIONAL WEATHER SERVICE RALEIGH NC
700 PM EST THU NOV 23 2017

NOTE: "FAIR" INDICATES FEW OR NO CLOUDS BELOW 12,000 FEET WITH NO
SIGNIFICANT WEATHER AND/OR OBSTRUCTIONS TO VISIBILITY.

NCZ001-053-055-056-065-067-240100-
WESTERN NORTH CAROLINA

CITY           SKY/WX    TMP DP  RH WIND       PRES   REMARKS
ASHEVILLE      CLEAR     45  28  51 CALM      30.02R
JEFFERSON      CLEAR     40  26  57 CALM      30.00S
MORGANTON      CLEAR     36  32  87 CALM      30.06R
HICKORY        CLEAR     44  27  51 CALM      30.02S
RUTHERFORDTON  CLEAR     47  28  46 CALM      30.04R
MOUNT AIRY     CLEAR     40  30  69 CALM      30.05R
BOONE          CLEAR     34  27  75 CALM      30.02R
$$

NCZ021-022-025-041-071-084-088-240100-
CENTRAL NORTH CAROLINA

CITY           SKY/WX    TMP DP  RH WIND       PRES   REMARKS
CHARLOTTE      PTCLDY    46  32  58 E3        30.04R
GREENSBORO     PTCLDY    41  29  62 CALM      30.04R
WINSTON-SALEM  CLEAR     40  26  57 CALM      30.05S
RALEIGH-DURHAM MOCLDY    39  31  72 CALM      30.08R
FORT BRAGG     CLOUDY    43  36  78 CALM      30.06R
FAYETTEVILLE   CLOUDY    43  37  79 NE3       30.07R
BURLINGTON     CLEAR     38  29  70 CALM      30.05R
LAURINBURG     CLOUDY    44  34  67 E3        30.07R
$$

NCZ011-015-027-028-043-044-047-080-103-240100-
NORTHEASTERN NORTH CAROLINA

CITY           SKY/WX    TMP DP  RH WIND       PRES   REMARKS
ROCKY MT-WILSO CLOUDY    39  35  86 CALM      30.09R
GREENVILLE     CLOUDY    41  36  81 CALM      30.11R
WASHINGTON     CLOUDY    42  38  87 CALM      30.09R
ELIZABETH CITY CLOUDY    42  37  82 E5        30.09R
MANTEO         MOCLDY    44  36  75 N5        30.09R
CAPE HATTERAS  CLOUDY    50  43  77 NE6       30.06S
$$

NCZ078-087-090-091-093-098-101-240100-
SOUTHEASTERN NORTH CAROLINA

CITY           SKY/WX    TMP DP  RH WIND       PRES   REMARKS
LUMBERTON      CLOUDY    45  37  73 CALM      30.07R
GOLDSBORO      CLOUDY    43  35  72 NE5       30.07R
KINSTON        CLOUDY    43  37  81 CALM      30.08S
KENANSVILLE    CLOUDY    43  37  81 CALM      30.08S
NEW BERN       CLOUDY    45  40  82 NE6       30.09R
CHERRY POINT   NOT AVBL
BEAUFORT       CLOUDY    48  42  80 NE8       30.06S
JACKSONVILLE   CLOUDY    47  41  80 NE7       30.07R
WILMINGTON     CLOUDY    47  40  76 N6        30.06S
$$




USA.gov is the U.S. government's official web portal to all federal, state and local government web resources and services.